Yuma MCAS, AZ

2:40 PM MST on May 22, 2017 (GMT -0700)
Yuma Marine Corps Air Station

Weather History for KNYL - November, 2012

Change the Weather History Date:

Sunday, November 4, 2012

  Actual Average Record
Temperature  
Mean Temperature 78 °F 70 °F  
Max Temperature 92 °F 83 °F 95 °F (1962)
Min Temperature 63 °F 58 °F 34 °F (1922)
Degree Days  
Heating Degree Days 0 0  
Month to date heating degree days 0 0  
Since 1 July heating degree days 0 2  
Cooling Degree Days 13 6  
Month to date cooling degree days 37 25  
Year to date cooling degree days 4827 4587  
Growing Degree Days 28 (Base 50)    
Moisture  
Dew Point 29 °F    
Average Humidity 20    
Maximum Humidity 31    
Minimum Humidity 9    
Precipitation  
Precipitation 0.00 in 0.01 in 0.15 in (1886)
Month to date precipitation 0.00 0.03  
Year to date precipitation 2.37 2.86  
Sea Level Pressure  
Sea Level Pressure 30.00 in    
Wind  
Wind Speed 6 mph (NNE)    
Max Wind Speed 14 mph    
Max Gust Speed 18 mph    
Visibility 10 miles    
Events      
T = Trace of Precipitation, MM = Missing Value Source: NWS Daily Summary

Daily Weather History Graph

Daily Weather History Graph

Search for Another Location

Airport or City:

Trip Planner

Search our weather history database for the weather conditions in past years. The results will help you decide how hot, cold, wet, or windy it might be!

Date:

Astronomy

Nov. 04, 2012 Rise Set
Actual Time 6:59 AM MST 5:44 PM MST
Civil Twilight 6:33 AM MST 6:10 PM MST
Nautical Twilight 6:04 AM MST 6:39 PM MST
Astronomical Twilight 5:35 AM MST 7:08 PM MST
Moon 10:29 PM MST (11/4) 11:42 AM MST (11/4)
Length of Visible Light 11h 36m
Length of Day
10h 45m
Waning Gibbous, 71% of the Moon is Illuminated
Nov 4
Waning Gibbous
Nov 6
Last Quarter
Nov 13
New
Nov 20
First Quarter
Nov 28
Full

Hourly Weather History & Observations

Time (MST) Temp. Dew Point Humidity Pressure Visibility Wind Dir Wind Speed Gust Speed Precip Events Conditions
12:55 AM 68.0 °F 33.1 °F 27% 29.99 in 10.0 mi NNE 4.6 mph - N/A   Clear
1:55 AM 68.0 °F 34.0 °F 28% 29.99 in 10.0 mi NNE 3.5 mph - N/A   Clear
2:55 AM 66.9 °F 33.1 °F 28% 29.99 in 10.0 mi NNE 5.8 mph - N/A   Clear
3:55 AM 64.9 °F 34.0 °F 32% 29.98 in 10.0 mi Calm Calm - N/A   Clear
4:55 AM 66.0 °F 33.1 °F 29% 29.98 in 10.0 mi NNE 5.8 mph - N/A   Clear
5:55 AM 64.9 °F 34.0 °F 32% 29.99 in 10.0 mi Calm Calm - N/A   Clear
6:55 AM 64.9 °F 33.1 °F 31% 30.00 in 10.0 mi NNE 3.5 mph - N/A   Clear
7:55 AM 66.9 °F 32.0 °F 27% 30.03 in 10.0 mi NE 5.8 mph - N/A   Clear
8:55 AM 71.1 °F 30.9 °F 23% 30.05 in 10.0 mi NNE 9.2 mph - N/A   Clear
9:55 AM 77.0 °F 35.1 °F 22% 30.06 in 10.0 mi NE 6.9 mph - N/A   Clear
10:55 AM 82.9 °F 30.0 °F 15% 30.05 in 10.0 mi NE 8.1 mph - N/A   Partly Cloudy
11:55 AM 86.0 °F 26.1 °F 11% 30.03 in 10.0 mi NE 10.4 mph - N/A   Partly Cloudy
12:55 PM 89.1 °F 24.1 °F 9% 30.01 in 10.0 mi NNE 12.7 mph - N/A   Partly Cloudy
1:55 PM 90.0 °F 25.0 °F 10% 29.99 in 10.0 mi NNE 8.1 mph - N/A   Partly Cloudy
2:55 PM 91.9 °F 25.0 °F 9% 29.98 in 10.0 mi North 9.2 mph - N/A   Partly Cloudy
3:55 PM 91.0 °F 24.1 °F 9% 29.97 in 10.0 mi North 6.9 mph - N/A   Partly Cloudy
4:55 PM 89.1 °F 25.0 °F 10% 29.97 in 10.0 mi North 8.1 mph - N/A   Partly Cloudy
5:55 PM 84.9 °F 27.0 °F 12% 29.98 in 10.0 mi North 9.2 mph - N/A   Clear
6:55 PM 80.1 °F 26.1 °F 14% 29.99 in 10.0 mi North 8.1 mph - N/A   Clear
7:55 PM 79.0 °F 25.0 °F 14% 30.00 in 10.0 mi North 6.9 mph - N/A   Clear
8:55 PM 77.0 °F 26.1 °F 15% 30.01 in 10.0 mi NNE 5.8 mph - N/A   Clear
9:55 PM 75.9 °F 25.0 °F 15% 30.01 in 10.0 mi North 5.8 mph - N/A   Clear
10:55 PM 75.0 °F 26.1 °F 16% 30.01 in 10.0 mi North 4.6 mph - N/A   Clear
11:00 PM - - N/A% - - North - - N/A   Unknown
11:55 PM 73.0 °F 27.0 °F 18% 30.01 in 10.0 mi North 5.8 mph - N/A   Clear